Location: B?lite?ti
(46.2833°N, 22.7333°E)
Time: 17:31:44
(UTC+00:00)

S3M - Pass Details

Date: 24 January 2021
Orbit: 949 x 1004 km, 83.0° (Epoch: 28 February)

Event Time Altitude Azimuth Distance (km) Brightness Sun altitude
Rises 18:03:09 0° 351° (N) 3,636 7.1 -27.6°
Reaches altitude 10° 18:05:39 10° 351° (N) 2,684 6.4 -28.1°
Maximum altitude 18:11:47 89° 263° (W) 957 3.8 -29.1°
Enters shadow 18:12:27 73° 177° (S) 993 3.9 -29.2°
